{"data":{"norad_id":53964,"epoch":"2026-09-20T17:41:33.424224Z","epoch_age_seconds":66180,"freshness":"FRESH","line1":"1 53964U 22125A   26263.73719241  .00000818  00000+0  35363-4 0  9992","line2":"2 53964  53.1614  60.4295 0001266  85.2859 274.8288 15.34392651218871","mean_motion":15.34392651,"eccentricity":0.0001266,"inclination_deg":53.1614,"raan_deg":60.4295,"arg_perigee_deg":85.2859,"mean_anomaly_deg":274.8288,"bstar":3.5363e-5,"rev_number":21887,"period_min":93.848207566787,"perigee_km":461.8590299313,"apogee_km":463.59113621073,"semimajor_km":6840.862083071,"source":"CELESTRAK","updated_at":"2026-09-21T09:00:33.038941Z"}}